Weather reports worldwide

Advertisment
Capo Palinuro, Italy (16310): temperature & dewpoint: 17.04.2018 01:00:00 - 23.04.2018 01:00:00 (CEST)Capo Palinuro, Italy (16310): wind speed: 17.04.2018 01:00:00 - 23.04.2018 01:00:00 (CEST)Capo Palinuro, Italy (16310): wind direction: 17.04.2018 01:00:00 - 23.04.2018 01:00:00 (CEST)Capo Palinuro, Italy (16310): reduced air pressure: 17.04.2018 01:00:00 - 23.04.2018 01:00:00 (CEST)Capo Palinuro, Italy (16310): visibility: 17.04.2018 01:00:00 - 23.04.2018 01:00:00 (CEST)Capo Palinuro, Italy (16310): sunshine duration: 17.04.2018 01:00:00 - 23.04.2018 01:00:00 (CEST)
Date & Time tt [°C] td [°C] ff [km/h] ff [kn] dd ppp [hPa] vv [km] sd [min]
23.04.2018 01:00:00 17,0 14,7 0 0 N 1019,6 15 -
23.04.2018 00:00:00 17,2 14,1 0 0 N 1019,6 15 -
22.04.2018 23:00:00 17,0 14,5 0 0 N 1019,7 15 -
22.04.2018 22:00:00 17,6 15,6 0 0 N 1019,2 15 -
22.04.2018 21:00:00 18,2 16,2 0 0 N 1018,9 10 -
22.04.2018 20:00:00 18,6 16,6 8 4 NNE 1018,8 10 -
22.04.2018 19:00:00 19,0 17,0 8 4 SSE 1018,8 10 -
22.04.2018 18:00:00 20,0 18,0 8 4 NNE 1018,8 15 0
22.04.2018 17:00:00 20,0 17,8 8 4 ENE 1018,9 15 30
22.04.2018 16:00:00 20,6 16,6 11 6 S 1019,5 15 60
22.04.2018 15:00:00 20,8 17,2 11 6 SSE 1019,5 15 60
22.04.2018 14:00:00 20,6 17,0 15 8 ESE 1019,6 15 60
22.04.2018 13:00:00 20,4 16,6 9 5 ESE 1019,8 15 60
22.04.2018 12:00:00 20,0 16,4 15 8 NNE 1019,7 15 60
22.04.2018 11:00:00 19,0 15,9 8 4 S 1019,6 15 60
22.04.2018 10:00:00 18,0 15,2 15 8 SSE 1019,6 15 48
22.04.2018 09:00:00 17,6 14,5 13 7 SE 1019,5 15 60
22.04.2018 08:00:00 17,4 14,3 9 5 E 1019,5 15 60
22.04.2018 07:00:00 17,2 14,1 8 4 E 1019,4 15 18
22.04.2018 06:00:00 17,4 14,3 0 0 N 1019,5 15 -
22.04.2018 05:00:00 17,6 14,5 8 4 WSW 1019,7 15 -
22.04.2018 04:00:00 17,8 14,7 11 6 SSW 1019,8 15 -
22.04.2018 03:00:00 18,0 14,9 9 5 W 1019,8 15 -
22.04.2018 02:00:00 18,0 15,1 11 6 SW 1019,9 15 -
22.04.2018 01:00:00 18,0 15,1 9 5 S 1020,1 15 -
22.04.2018 00:00:00 18,0 15,1 11 6 WSW 1020,1 15 -
21.04.2018 23:00:00 18,0 15,3 11 6 SSW 1020,1 10 -
21.04.2018 22:00:00 18,2 15,6 21 11 SW 1019,8 15 -
21.04.2018 21:00:00 18,2 15,8 11 6 WSW 1019,6 15 -
21.04.2018 20:00:00 18,2 16,2 9 5 SSW 1019,4 15 0
21.04.2018 19:00:00 18,2 15,5 11 6 WSW 1019,4 15 0
21.04.2018 18:00:00 18,6 15,8 0 0 N 1019,5 15 0
21.04.2018 17:00:00 20,0 18,0 13 7 SE 1019,5 15 -
21.04.2018 16:00:00 20,4 17,4 15 8 SSE 1019,9 15 48
21.04.2018 15:00:00 20,6 16,8 13 7 SSW 1020,0 15 54
21.04.2018 14:00:00 20,4 16,8 11 6 SSW 1020,0 15 48
21.04.2018 13:00:00 20,4 16,8 15 8 SSE 1020,0 15 60
21.04.2018 12:00:00 19,8 16,1 16 9 SE 1019,9 15 60
21.04.2018 11:00:00 18,6 15,1 18 10 SSE 1019,7 10 60
21.04.2018 10:00:00 18,0 15,1 8 4 SW 1019,8 15 60
21.04.2018 09:00:00 17,6 14,1 8 4 SSW 1019,8 15 60
21.04.2018 08:00:00 17,4 14,7 9 5 S 1019,8 15 30
21.04.2018 07:00:00 17,4 14,9 8 4 SSW 1019,8 15 0
21.04.2018 06:00:00 17,2 14,3 11 6 WSW 1019,8 15 -
21.04.2018 05:00:00 17,2 14,3 13 7 W 1019,8 15 -
21.04.2018 04:00:00 17,4 14,7 11 6 WSW 1019,8 15 -
21.04.2018 03:00:00 17,6 14,7 9 5 SSW 1019,8 15 -
21.04.2018 02:00:00 17,8 15,1 21 11 W 1019,8 15 -
21.04.2018 01:00:00 17,8 14,9 22 12 W 1019,8 15 -
21.04.2018 00:00:00 18,0 15,1 22 12 WSW 1019,7 15 -
20.04.2018 23:00:00 18,0 15,1 9 5 SSW 1019,6 15 -
20.04.2018 22:00:00 18,2 15,3 8 4 SSW 1019,5 15 -
20.04.2018 21:00:00 18,6 16,6 8 4 SSW 1019,1 15 -
20.04.2018 20:00:00 19,0 17,0 8 4 SSW 1019,1 15 0
20.04.2018 19:00:00 20,0 18,0 9 5 SSW 1019,1 15 60
20.04.2018 18:00:00 20,4 18,4 11 6 SSW 1019,4 15 60
20.04.2018 17:00:00 20,6 18,5 13 7 S 1019,6 15 60
20.04.2018 16:00:00 21,0 18,6 9 5 SE 1019,9 15 60
20.04.2018 15:00:00 21,0 18,4 8 4 ESE 1020,4 15 60
20.04.2018 14:00:00 21,0 17,0 5 3 ESE 1020,6 15 60
20.04.2018 13:00:00 21,0 17,8 5 3 NE 1020,6 15 60
20.04.2018 12:00:00 20,0 15,4 5 3 ENE 1020,7 20 60
20.04.2018 11:00:00 19,0 14,5 5 3 SSW 1020,7 20 6
20.04.2018 10:00:00 18,0 14,9 15 8 ESE 1020,8 20 60
20.04.2018 09:00:00 17,0 14,5 0 0 N 1020,9 15 60
20.04.2018 08:00:00 17,0 14,3 18 10 ESE 1020,9 15 60
20.04.2018 07:00:00 17,4 14,1 0 0 N 1020,9 15 30
20.04.2018 06:00:00 17,0 13,9 0 0 N 1021,9 15 -
20.04.2018 05:00:00 17,0 12,3 9 5 ENE 1021,9 15 -
20.04.2018 04:00:00 17,0 12,7 9 5 NE 1021,9 15 -
20.04.2018 03:00:00 17,0 13,5 11 6 NNE 1022,5 15 -
20.04.2018 02:00:00 17,2 13,9 15 8 NNE 1022,5 15 -
20.04.2018 01:00:00 17,4 13,9 8 4 ENE 1022,7 15 -
20.04.2018 00:00:00 17,4 14,1 9 5 NNE 1022,8 15 -
19.04.2018 23:00:00 18,0 14,9 9 5 NE 1022,6 10 -
19.04.2018 22:00:00 18,0 14,9 11 6 NE 1022,2 12 -
19.04.2018 21:00:00 17,8 14,7 18 10 ENE 1022,6 12 -
19.04.2018 20:00:00 18,0 15,8 22 12 E 1022,0 12 0
19.04.2018 19:00:00 20,0 17,4 9 5 N 1022,2 15 0
19.04.2018 18:00:00 20,0 17,0 11 6 NE 1022,4 15 12
19.04.2018 17:00:00 21,0 17,0 9 5 NNE 1022,6 15 12
19.04.2018 16:00:00 22,0 17,4 0 0 N 1022,6 15 60
19.04.2018 15:00:00 22,0 16,3 9 5 NNE 1023,0 15 60
19.04.2018 14:00:00 21,0 15,3 11 6 NNE 1023,5 15 60
19.04.2018 13:00:00 20,0 16,4 15 8 NNE 1023,6 15 60
19.04.2018 12:00:00 19,8 16,4 8 4 N 1023,5 15 60
19.04.2018 11:00:00 19,4 13,8 9 5 NNE 1023,4 15 60
19.04.2018 10:00:00 18,8 14,3 5 3 NE 1023,3 15 60
19.04.2018 09:00:00 17,6 13,5 5 3 ENE 1023,0 15 0
19.04.2018 08:00:00 17,0 13,1 5 3 NNE 1023,0 15 0
19.04.2018 07:00:00 17,0 12,5 4 2 NNW 1023,0 15 -
19.04.2018 06:00:00 17,0 11,9 5 3 NNE 1023,0 15 -
19.04.2018 05:00:00 16,0 12,9 5 3 N 1023,1 15 -
19.04.2018 04:00:00 16,0 13,1 4 2 NNW 1023,2 15 -
19.04.2018 03:00:00 - - - - - - - -
19.04.2018 02:00:00 16,0 12,9 5 3 N 1023,3 15 -
19.04.2018 01:00:00 - - - - - - - -
19.04.2018 00:00:00 17,0 13,9 8 4 WNW 1023,3 15 -
18.04.2018 23:00:00 17,0 13,9 0 0 N 1023,2 10 -
18.04.2018 22:00:00 17,0 13,9 5 3 SE 1023,2 15 -
18.04.2018 21:00:00 17,2 14,3 5 3 NE 1022,7 12 -
18.04.2018 20:00:00 17,6 15,0 5 3 ENE 1022,4 10 0
18.04.2018 19:00:00 18,8 16,6 4 2 SSW 1022,1 15 60
18.04.2018 18:00:00 19,4 17,4 4 2 W 1021,8 15 60
18.04.2018 17:00:00 19,8 16,8 5 3 NW 1022,0 10 60
18.04.2018 16:00:00 20,0 16,0 5 3 N 1022,2 15 60
18.04.2018 15:00:00 20,2 16,7 5 3 NW 1022,4 15 60
18.04.2018 14:00:00 20,2 17,0 8 4 NNW 1022,3 15 60
18.04.2018 13:00:00 20,0 16,2 8 4 N 1022,4 15 60
18.04.2018 12:00:00 19,2 15,7 9 5 N 1022,3 15 60
18.04.2018 11:00:00 18,2 14,3 9 5 N 1022,1 10 60
18.04.2018 10:00:00 17,0 13,9 8 4 N 1022,0 15 60
18.04.2018 09:00:00 16,0 13,5 9 5 NNE 1021,8 15 60
18.04.2018 08:00:00 15,0 12,3 15 8 NNE 1021,9 15 0
18.04.2018 07:00:00 15,2 12,0 11 6 NNE 1021,0 15 -
18.04.2018 06:00:00 15,2 12,0 8 4 N 1020,9 15 -
18.04.2018 05:00:00 15,0 11,8 0 0 N 1020,9 15 -
18.04.2018 04:00:00 15,0 11,8 0 0 N 1021,0 10 -
18.04.2018 03:00:00 15,0 11,8 0 0 N 1021,0 15 -
18.04.2018 02:00:00 15,0 12,0 0 0 N 1020,9 15 -
18.04.2018 01:00:00 15,0 13,0 0 0 N 1020,7 10 -
18.04.2018 00:00:00 15,0 12,3 0 0 N 1020,5 10 -
17.04.2018 23:00:00 15,0 12,5 0 0 N 1020,3 10 0
17.04.2018 22:00:00 15,0 12,5 0 0 N 1020,3 10 -
17.04.2018 21:00:00 16,0 14,0 0 0 N 1019,9 10 -
17.04.2018 20:00:00 16,4 14,2 0 0 N 1019,9 10 -
17.04.2018 19:00:00 17,2 15,0 8 4 E 1019,8 10 0
17.04.2018 18:00:00 17,2 15,0 4 2 S 1019,8 10 0
17.04.2018 17:00:00 18,0 15,8 8 4 S 1019,8 10 0
17.04.2018 16:00:00 19,2 16,4 11 6 S 1019,7 10 0
17.04.2018 15:00:00 19,2 15,7 11 6 SSE 1019,7 10 0
17.04.2018 14:00:00 19,0 15,5 11 6 S 1019,7 10 0
17.04.2018 13:00:00 18,0 15,4 9 5 ESE 1019,9 8 0
17.04.2018 12:00:00 18,0 15,4 8 4 SSE 1019,9 6 0
17.04.2018 11:00:00 17,6 14,5 8 4 N 1019,5 8 0
17.04.2018 10:00:00 17,0 13,9 11 6 ESE 1018,9 6 0
17.04.2018 09:00:00 16,2 13,1 15 8 SE 1018,9 10 0
17.04.2018 08:00:00 16,2 13,1 11 6 ESE 1018,0 10 -
17.04.2018 07:00:00 16,2 13,1 5 3 E 1018,0 10 -
17.04.2018 06:00:00 16,4 13,3 4 2 E 1017,6 10 -
17.04.2018 05:00:00 16,4 13,3 5 3 ESE 1017,5 10 -
17.04.2018 04:00:00 16,4 13,3 4 2 SE 1017,2 15 -
17.04.2018 03:00:00 16,4 13,3 5 3 ESE 1017,3 15 -
17.04.2018 02:00:00 16,6 13,3 5 3 SSE 1017,0 15 -
17.04.2018 01:00:00 16,6 13,3 5 3 ESE 1015,6 15 -

tt = temperature
td = dewpoint
ff = wind speed
dd = wind direction
ppp = reduced air pressure
vv = visibility
sd = sunshine duration

Next stations